• In Russia
  • List of Countries
  • For 7 days
  • Water Temperature
  • Satellite Maps
  • Weather Map
  • Weather Widgets
  • user-avatar
    Login

    Hourly Weather Marcali

    Today, 14 December, Thursday

    Time Temperature Precipitation Wind Pressure Humidity
    00:00 0°C° 0 mm 4 mps 746 mmHg 90%
    01:00 0°C° 0 mm 4 mps 746 mmHg 91%
    02:00 +1°C° 0 mm 5 mps 745 mmHg 90%
    03:00 +1°C° 0 mm 5 mps 744 mmHg 88%
    04:00 +2°C° 0 mm 6 mps 743 mmHg 86%
    05:00 +3°C° 0 mm 6 mps 743 mmHg 83%
    06:00 +3°C° 0 mm 7 mps 742 mmHg 80%
    07:00 +4°C° 0 mm 7 mps 742 mmHg 77%
    08:00 +5°C° 0 mm 6 mps 742 mmHg 77%
    09:00 +5°C° 0 mm 6 mps 742 mmHg 77%
    10:00 +7°C° 0 mm 5 mps 743 mmHg 77%
    11:00 +7°C° 0.1 mm 4 mps 743 mmHg 77%
    12:00 +9°C° 0.1 mm 3 mps 743 mmHg 76%
    13:00 +10°C° 0.1 mm 2 mps 743 mmHg 76%
    14:00 +9°C° 0.2 mm 2 mps 743 mmHg 79%
    15:00 +8°C° 0.2 mm 2 mps 743 mmHg 83%
    16:00 +8°C° 0.2 mm 2 mps 743 mmHg 86%
    17:00 +8°C° 0.4 mm 3 mps 743 mmHg 87%
    18:00 +7°C° 0.4 mm 3 mps 743 mmHg 89%
    19:00 +6°C° 0.4 mm 4 mps 744 mmHg 90%
    20:00 +6°C° 0.4 mm 4 mps 743 mmHg 89%
    21:00 +5°C° 0.4 mm 5 mps 743 mmHg 88%
    22:00 +5°C° 0.4 mm 5 mps 743 mmHg 86%
    23:00 +4°C° 0.5 mm 6 mps 742 mmHg 86%

    Tomorrow, 15 December, Friday

    Time Temperature Precipitation Wind Pressure Humidity
    00:00 +4°C° 0.5 mm 6 mps 742 mmHg 86%
    01:00 +3°C° 0.5 mm 7 mps 741 mmHg 85%
    02:00 +4°C° 0.1 mm 6 mps 740 mmHg 85%
    03:00 +4°C° 0.1 mm 6 mps 739 mmHg 86%
    04:00 +6°C° 0.1 mm 5 mps 738 mmHg 86%
    05:00 +6°C° 0 mm 5 mps 738 mmHg 84%
    06:00 +7°C° 0 mm 5 mps 738 mmHg 81%
    07:00 +7°C° 0 mm 5 mps 738 mmHg 79%
    08:00 +8°C° 0.4 mm 5 mps 738 mmHg 79%
    09:00 +8°C° 0.4 mm 5 mps 738 mmHg 79%
    10:00 +10°C° 0.4 mm 4 mps 739 mmHg 79%
    11:00 +8°C° 0.9 mm 4 mps 739 mmHg 79%
    12:00 +9°C° 0.9 mm 3 mps 739 mmHg 78%
    13:00 +8°C° 0.9 mm 2 mps 739 mmHg 77%
    14:00 +8°C° 0.2 mm 2 mps 740 mmHg 75%
    15:00 +7°C° 0.2 mm 3 mps 740 mmHg 73%
    16:00 +6°C° 0.2 mm 4 mps 740 mmHg 70%
    17:00 +5°C° 0.5 mm 3 mps 741 mmHg 70%
    18:00 +5°C° 0.5 mm 3 mps 741 mmHg 69%
    19:00 +4°C° 0.5 mm 3 mps 741 mmHg 69%
    20:00 +5°C° 0.5 mm 2 mps 741 mmHg 71%
    21:00 +5°C° 0.5 mm 2 mps 742 mmHg 73%
    22:00 +6°C° 0.5 mm 1 mps 742 mmHg 75%
    23:00 +4°C° 0.2 mm 2 mps 742 mmHg 76%

    Day after tomorrow, 16 December, Saturday

    Time Temperature Precipitation Wind Pressure Humidity
    00:00 +4°C° 0.2 mm 2 mps 742 mmHg 76%
    01:00 +4°C° 0.2 mm 2 mps 742 mmHg 77%
    02:00 +4°C° 0.1 mm 2 mps 743 mmHg 78%
    03:00 +4°C° 0.1 mm 2 mps 743 mmHg 79%
    04:00 +4°C° 0.1 mm 2 mps 743 mmHg 80%
    05:00 +3°C° 0 mm 2 mps 743 mmHg 82%
    06:00 +3°C° 0 mm 2 mps 743 mmHg 83%
    07:00 +3°C° 0 mm 2 mps 744 mmHg 84%
    08:00 +4°C° 0 mm 2 mps 744 mmHg 82%
    09:00 +4°C° 0 mm 2 mps 745 mmHg 80%
    10:00 +5°C° 0 mm 2 mps 745 mmHg 78%
    11:00 +5°C° 0 mm 2 mps 745 mmHg 74%
    12:00 +6°C° 0 mm 2 mps 745 mmHg 70%
    13:00 +6°C° 0 mm 2 mps 746 mmHg 66%
    14:00 +7°C° 0 mm 1 mps 746 mmHg 70%
    15:00 +6°C° 0 mm 1 mps 746 mmHg 73%
    16:00 +5°C° 0 mm 1 mps 746 mmHg 76%
    17:00 +4°C° 0 mm 2 mps 747 mmHg 77%
    18:00 +4°C° 0 mm 2 mps 747 mmHg 78%
    19:00 +3°C° 0 mm 2 mps 748 mmHg 79%
    20:00 +2°C° 0 mm 3 mps 748 mmHg 78%
    21:00 +2°C° 0 mm 3 mps 749 mmHg 77%
    22:00 +1°C° 0 mm 3 mps 749 mmHg 75%
    23:00 0°C° 0 mm 4 mps 749 mmHg 76%

    17 December, Sunday

    Time Temperature Precipitation Wind Pressure Humidity
    00:00 0°C° 0 mm 4 mps 749 mmHg 76%
    01:00 0°C° 0 mm 5 mps 750 mmHg 76%
    02:00 -1°C° 0 mm 5 mps 750 mmHg 76%
    03:00 -1°C° 0 mm 5 mps 750 mmHg 75%
    04:00 -2°C° 0 mm 6 mps 750 mmHg 75%
    05:00 -2°C° 0 mm 6 mps 750 mmHg 75%
    06:00 -1°C° 0 mm 5 mps 751 mmHg 75%
    07:00 -1°C° 0 mm 5 mps 751 mmHg 75%
    08:00 -2°C° 0 mm 6 mps 752 mmHg 72%
    09:00 -1°C° 0 mm 6 mps 752 mmHg 69%
    10:00 0°C° 0 mm 7 mps 753 mmHg 66%
    11:00 0°C° 0 mm 7 mps 753 mmHg 63%
    12:00 +2°C° 0 mm 6 mps 753 mmHg 60%
    13:00 +2°C° 0 mm 6 mps 753 mmHg 57%
    14:00 +2°C° 0 mm 5 mps 753 mmHg 61%
    15:00 +1°C° 0 mm 4 mps 754 mmHg 64%
    16:00 0°C° 0 mm 4 mps 754 mmHg 67%
    17:00 0°C° 0 mm 4 mps 755 mmHg 70%
    18:00 -1°C° 0 mm 4 mps 755 mmHg 72%
    19:00 -1°C° 0 mm 4 mps 756 mmHg 75%
    20:00 -1°C° 0 mm 4 mps 756 mmHg 75%
    21:00 -1°C° 0 mm 4 mps 757 mmHg 76%
    22:00 -1°C° 0 mm 4 mps 757 mmHg 77%
    23:00 -2°C° 0 mm 4 mps 757 mmHg 77%

    18 December, Monday

    Time Temperature Precipitation Wind Pressure Humidity
    00:00 -2°C° 0 mm 4 mps 757 mmHg 77%
    01:00 -2°C° 0 mm 4 mps 758 mmHg 78%
    02:00 -2°C° 0 mm 4 mps 758 mmHg 78%
    03:00 -2°C° 0 mm 4 mps 758 mmHg 78%
    04:00 -1°C° 0 mm 3 mps 758 mmHg 78%
    05:00 -1°C° 0 mm 3 mps 759 mmHg 78%
    06:00 -1°C° 0 mm 3 mps 759 mmHg 78%
    07:00 -1°C° 0 mm 3 mps 759 mmHg 78%
    08:00 0°C° 0 mm 3 mps 759 mmHg 74%
    09:00 0°C° 0 mm 3 mps 760 mmHg 69%
    10:00 0°C° 0 mm 4 mps 760 mmHg 65%
    11:00 +2°C° 0 mm 3 mps 760 mmHg 63%
    12:00 +2°C° 0 mm 3 mps 759 mmHg 60%
    13:00 +3°C° 0 mm 3 mps 759 mmHg 58%
    14:00 +3°C° 0 mm 2 mps 759 mmHg 62%
    15:00 +2°C° 0 mm 2 mps 758 mmHg 66%
    16:00 +2°C° 0 mm 2 mps 758 mmHg 70%
    17:00 +1°C° 0 mm 2 mps 758 mmHg 71%
    18:00 +1°C° 0 mm 2 mps 758 mmHg 72%
    19:00 +1°C° 0 mm 2 mps 758 mmHg 73%
    20:00 +1°C° 0 mm 2 mps 758 mmHg 73%
    21:00 +1°C° 0 mm 2 mps 758 mmHg 73%
    22:00 +1°C° 0 mm 2 mps 758 mmHg 73%
    23:00 +1°C° 0 mm 2 mps 758 mmHg 74%

    19 December, Tuesday

    Time Temperature Precipitation Wind Pressure Humidity
    00:00 +1°C° 0 mm 2 mps 758 mmHg 75%
    01:00 +1°C° 0 mm 2 mps 758 mmHg 76%
    02:00 -1°C° 0 mm 2 mps 758 mmHg 77%
    03:00 +1°C° 0 mm 1 mps 758 mmHg 77%
    04:00 +1°C° 0 mm 1 mps 758 mmHg 78%
    05:00 +1°C° 0.1 mm 1 mps 759 mmHg 78%
    06:00 +2°C° 0.1 mm 1 mps 759 mmHg 77%
    07:00 +2°C° 0.1 mm 1 mps 759 mmHg 77%
    08:00 +2°C° 0.2 mm 1 mps 760 mmHg 77%
    09:00 +2°C° 0.2 mm 1 mps 760 mmHg 78%
    10:00 +3°C° 0.2 mm 1 mps 761 mmHg 78%
    11:00 +3°C° 0.3 mm 1 mps 760 mmHg 79%
    12:00 +3°C° 0.3 mm 1 mps 760 mmHg 79%
    13:00 +2°C° 0.3 mm 2 mps 760 mmHg 80%
    14:00 +3°C° 0.3 mm 1 mps 760 mmHg 82%
    15:00 +3°C° 0.3 mm 1 mps 760 mmHg 85%
    16:00 +3°C° 0.3 mm 1 mps 761 mmHg 87%
    17:00 +3°C° 0.1 mm 1 mps 761 mmHg 88%
    18:00 +3°C° 0.1 mm 1 mps 761 mmHg 90%
    19:00 +3°C° 0.1 mm 1 mps 761 mmHg 91%
    20:00 +2°C° 0.1 mm 2 mps 762 mmHg 91%
    21:00 +2°C° 0.1 mm 2 mps 762 mmHg 92%
    22:00 +2°C° 0.1 mm 2 mps 762 mmHg 92%
    23:00 +2°C° 0.2 mm 2 mps 762 mmHg 92%
    Show more